"Pseudo-MPEC" for C03CZA1

Created 2019 Feb 19 11:18:07 UT using Find_Orb

Click here for an explanation of pseudo-MPECs

 
 Astrometry: 
     C03CZA1  C2019 02 09.36895 11 20 53.77 +02 42 49.8    ~29C3 18.7 GVNEOCP703
     C03CZA1  C2019 02 09.37419 11 20 52.06 +02 40 19.0    ~29C3 18.5 GVNEOCP703
     C03CZA1  C2019 02 09.37943 11 20 50.59 +02 37 49.0    ~29C3 19.1 GVNEOCP703
     C03CZA1  C2019 02 09.38468 11 20 48.93 +02 35 14.2    ~29C3 18.7 GVNEOCP703
     C03CZA1  C2019 02 09.48379 11 20 11.99 +01 35 48.3    ~29NX 18.1 GVNEOCPI52
     C03CZA1  C2019 02 09.48439 11 20 11.73 +01 35 22.2    ~29NX 18.1 GVNEOCPI52
     C03CZA1  C2019 02 09.48470 11 20 11.61 +01 35 09.1    ~29NX 18.1 GVNEOCPI52

Station data:
(703) Catalina Sky Survey  (N32.417006 W110.732640)  US/Arizona.  Observers
   B. M. Africano, E. J. Christensen, G. A. Farneth, D. C. Fuls, A. R. Gibbs,
   A. D. Grauer, H. Groeller, J. A. Johnson, R. A. Kowalski, S. M. Larson, G.
   J. Leonard, R. L. Seaman, F. C. Shelly. 0.68 m Schmidt + 10K CCD.
(I52) Steward Observatory, Mt. Lemmon Station  (N32.442547 W110.788920)
   US/Arizona.  Observers B. M. Africano, E. J. Christensen, G. A. Farneth,
   D. C. Fuls, A. R. Gibbs, A. D. Grauer, H. Groeller, J. A. Johnson, R. A.
   Kowalski, S. M. Larson, G. J. Leonard, R. L. Seaman, F. C. Shelly. 1.0-m
   reflector + CCD.

Orbital elements:  C03CZA1
   Perihelion 2019 Mar 4.615996 TT = 14:47:02 (JD 2458547.115996)
Epoch 2019 Feb  9.0 TT = JDT 2458523.5   Earth MOID: 0.0016   Ju: 0.2244
q   0.00668912                      Ve: 0.0553   Me: 0.0748   Ma: 0.0120
H   26.0  G 0.15   Peri.  347.62819
                   Node   320.66314
e   1.0102017      Incl.   82.46446
From 7 observations 2019 Feb. 9 (2.8 hr); mean residual 0".72
Residuals in arcseconds: 
190209 703  .55+  .09+    190209 703  .24+  .25+    190209 I52  .03+  .42-    
190209 703  1.5-  1.6-    190209 I52  .16-  .81-    
190209 703  .53+  .18+    190209 I52  .18-  .82-    

Ephemerides (geocentric):
Date (UTC) HH   RA              Dec         delta   r     elong  mag
---- -- -- --  -------------   -----------  ------ ------ -----  ---
2019 02 19 11  23 20 56.857   -07 41 20.05  .35308 .66185  18.0 31??
2019 02 19 12  23 20 55.871   -07 41 19.24  .35467 .66033  18.0 31??
2019 02 19 13  23 20 54.878   -07 41 18.48  .35625 .65880  18.0 31??
2019 02 19 14  23 20 53.880   -07 41 17.78  .35783 .65728  17.9 31??
2019 02 19 15  23 20 52.876   -07 41 17.13  .35942 .65575  17.9 31??
2019 02 19 16  23 20 51.866   -07 41 16.55  .36100 .65422  17.8 31??
2019 02 19 17  23 20 50.850   -07 41 16.02  .36259 .65269  17.8 31??
2019 02 19 18  23 20 49.829   -07 41 15.54  .36417 .65116  17.7 31??
2019 02 19 19  23 20 48.801   -07 41 15.12  .36576 .64963  17.7 31??
2019 02 19 20  23 20 47.767   -07 41 14.75  .36734 .64810  17.6 31??
2019 02 19 21  23 20 46.728   -07 41 14.44  .36893 .64657  17.6 31??
2019 02 19 22  23 20 45.682   -07 41 14.18  .37052 .64503  17.5 31??
2019 02 19 23  23 20 44.631   -07 41 13.98  .37211 .64349  17.5 31??
2019 02 20 00  23 20 43.573   -07 41 13.83  .37370 .64196  17.5 31??
2019 02 20 01  23 20 42.509   -07 41 13.73  .37529 .64042  17.4 31??
2019 02 20 02  23 20 41.439   -07 41 13.68  .37688 .63888  17.4 31??
2019 02 20 03  23 20 40.363   -07 41 13.69  .37847 .63734  17.3 31??
2019 02 20 04  23 20 39.280   -07 41 13.74  .38006 .63579  17.3 31??
2019 02 20 05  23 20 38.191   -07 41 13.85  .38165 .63425  17.2 31??
2019 02 20 06  23 20 37.097   -07 41 14.01  .38325 .63270  17.2 31??
2019 02 20 07  23 20 35.995   -07 41 14.22  .38484 .63116  17.1 31??
2019 02 20 08  23 20 34.888   -07 41 14.48  .38643 .62961  17.1 31??
2019 02 20 09  23 20 33.774   -07 41 14.79  .38803 .62806  17.0 31??
2019 02 20 10  23 20 32.653   -07 41 15.14  .38962 .62651  17.0 31??
2019 02 20 11  23 20 31.526   -07 41 15.55  .39122 .62496  17.0 31??
2019 02 20 12  23 20 30.393   -07 41 16.01  .39282 .62341  16.9 31??
2019 02 20 13  23 20 29.253   -07 41 16.51  .39442 .62185  16.9 31??
2019 02 20 14  23 20 28.107   -07 41 17.07  .39601 .62030  16.8 31??
2019 02 20 15  23 20 26.954   -07 41 17.67  .39761 .61874  16.8 31??
2019 02 20 16  23 20 25.795   -07 41 18.31  .39921 .61718  16.7 31??
2019 02 20 17  23 20 24.629   -07 41 19.01  .40081 .61563  16.7 31??
2019 02 20 18  23 20 23.456   -07 41 19.75  .40241 .61406  16.6 31??
2019 02 20 19  23 20 22.276   -07 41 20.54  .40402 .61250  16.6 32??
2019 02 20 20  23 20 21.090   -07 41 21.37  .40562 .61094  16.5 32??
2019 02 20 21  23 20 19.897   -07 41 22.25  .40722 .60937  16.5 32??
2019 02 20 22  23 20 18.697   -07 41 23.18  .40883 .60781  16.4 32??
2019 02 20 23  23 20 17.491   -07 41 24.15  .41043 .60624  16.4 32??
2019 02 21 00  23 20 16.277   -07 41 25.17  .41204 .60467  16.4 32??
2019 02 21 01  23 20 15.056   -07 41 26.23  .41364 .60310  16.3 32??
2019 02 21 02  23 20 13.829   -07 41 27.34  .41525 .60153  16.3 32??
2019 02 21 03  23 20 12.595   -07 41 28.49  .41686 .59996  16.2 32??
2019 02 21 04  23 20 11.353   -07 41 29.69  .41846 .59839  16.2 32??
2019 02 21 05  23 20 10.105   -07 41 30.93  .42007 .59681  16.1 32??
2019 02 21 06  23 20 08.849   -07 41 32.21  .42168 .59523  16.1 32??
2019 02 21 07  23 20 07.586   -07 41 33.54  .42329 .59365  16.0 32??
2019 02 21 08  23 20 06.316   -07 41 34.91  .42491 .59207  16.0 32??
2019 02 21 09  23 20 05.039   -07 41 36.32  .42652 .59049  15.9 32??
2019 02 21 10  23 20 03.755   -07 41 37.78  .42813 .58891  15.9 32??